Flag for Russia

Past Weather in Saint-Petersburg, Russia — Yesterday and Last 2 Weeks

Now
61 °F

Passing clouds.


Feels Like: 61 °F
Forecast: 65 / 52 °F
Wind: 3 mph from West

Location: St. Petersburg

Current Time: Jul 13, 2020 at 9:31:57 am

Latest Report: Jul 13, 2020 at 8:30 am


Visibility: N/A

Pressure: 29.98 "Hg

Humidity: 77%

Dew Point: 54 °F

Location of Saint-PetersburgLocation

Past Weather in Saint-Petersburg — Graph

°F

Saint-Petersburg Temperature Yesterday

Maximum temperature yesterday: 68 °F (at 12:30 pm)
Minimum temperature yesterday: 55 °F (at 2:00 am)
Average temperature yesterday: 61 °F

High & Low Weather Summary for the Past Weeks

 TemperatureHumidityPressure
High77 °F (Jun 30, 2:30 pm)94% (Jul 5, 8:30 am)30.01 "Hg (Jul 5, 8:30 am)
Low50 °F (Jul 9, 2:30 am)35% (Jun 28, 5:00 pm)29.24 "Hg (Jun 30, 3:00 pm)
Average63 °F69%29.73 "Hg
* Reported Jun 28 8:00 am — Jul 13 8:30 am, Saint-Petersburg. Weather by CustomWeather, © 2020

Note: Actual official high and low records may vary slightly from our data, if they occured in-between our weather recording intervals... More about our weather records

Saint-Petersburg Weather History for the Previous 24 Hours

Scroll right to see more
 ConditionsComfort  
Time TempWeatherWind HumidityBarometerVisibility
8:30 am
Mon, Jul 13
61 °FPassing clouds.3 mph77%29.98 "HgN/A
8:00 am63 °FPassing clouds.3 mph73%29.98 "HgN/A
7:30 am59 °FPassing clouds.3 mph77%30.01 "HgN/A
7:00 am57 °FPassing clouds.3 mph82%30.01 "HgN/A
6:30 am54 °FPassing clouds.3 mph88%30.01 "HgN/A
6:00 am52 °FFog.3 mph88%30.01 "HgN/A
5:30 am50 °FFog.No wind88%30.01 "Hg2 mi
5:00 am50 °FFog.1 mph88%30.01 "Hg5 mi
4:30 am50 °FLight fog.No wind88%30.01 "Hg4 mi
3:30 am52 °FFog.No wind82%30.01 "Hg2 mi
3:00 am52 °FFog.1 mph82%30.01 "Hg4 mi
2:30 am52 °FFog.No wind88%30.01 "HgN/A
2:00 am52 °FFog.1 mph88%30.01 "HgN/A
1:30 am54 °FFog.No wind82%30.01 "HgN/A
1:00 am54 °FClear.No wind82%30.01 "Hg10 mi
12:30 am55 °FClear.No wind82%30.01 "Hg10 mi
12:00 am55 °FClear.1 mph77%30.01 "Hg10 mi
11:30 pm
Sun, Jul 12
55 °FPassing clouds.3 mph77%30.01 "HgN/A
11:00 pm55 °FPassing clouds.3 mph77%30.01 "HgN/A
10:30 pm57 °FPassing clouds.1 mph72%30.01 "HgN/A
10:00 pm59 °FBroken clouds.1 mph63%30.01 "HgN/A
9:30 pm63 °FBroken clouds.No wind64%30.01 "HgN/A
9:00 pm63 °FBroken clouds.1 mph68%30.01 "HgN/A
8:30 pm61 °FSprinkles. Broken clouds.No wind72%30.01 "HgN/A
8:00 pm63 °FBroken clouds.3 mph68%30.01 "HgN/A
7:30 pm63 °FBroken clouds.8 mph64%30.01 "HgN/A
7:00 pm64 °FBroken clouds.3 mph64%30.01 "HgN/A
6:30 pm64 °FBroken clouds.3 mph60%30.01 "HgN/A
6:00 pm63 °FBroken clouds.6 mph68%30.01 "HgN/A
5:30 pm64 °FBroken clouds.8 mph64%30.01 "HgN/A
5:00 pm64 °FBroken clouds.3 mph68%30.01 "HgN/A
4:30 pm64 °FPartly sunny.8 mph68%30.01 "HgN/A
4:00 pm64 °FBroken clouds.6 mph64%30.01 "HgN/A
3:30 pm66 °FBroken clouds.8 mph60%30.01 "HgN/A
3:00 pm66 °FPartly sunny.8 mph64%30.01 "HgN/A
2:30 pm66 °FPartly sunny.8 mph64%30.01 "HgN/A
2:00 pm66 °FPartly sunny.6 mph64%30.01 "HgN/A
1:30 pm64 °FPartly sunny.8 mph68%30.01 "HgN/A
1:00 pm64 °FBroken clouds.8 mph64%30.01 "HgN/A
12:30 pm68 °FPartly sunny.6 mph56%30.01 "HgN/A
12:00 pm64 °FPartly sunny.6 mph64%30.01 "HgN/A
11:30 am64 °FPartly sunny.8 mph60%30.01 "HgN/A
11:00 am64 °FPartly sunny.8 mph64%30.01 "HgN/A
10:30 am63 °FPartly sunny.6 mph68%30.01 "HgN/A
10:00 am63 °FPartly sunny.6 mph68%30.01 "HgN/A
9:30 am63 °FPartly sunny.3 mph68%30.01 "HgN/A
9:00 am61 °FPartly sunny.6 mph77%30.01 "HgN/A
Weather by CustomWeather, © 2020

See weather overview